Погода в Ильябеле

Бразилия     23°49′59″S   45°22′09″W
темп.,
°C
ветер,
м/с
пор.,
м/с
влажн.,
%
обл.,
%
осадки,
мм/ч
давл.,
гПа
погр.,
м
21 июня, пн
пн2100:00+18зюз348254 0.8 1020318
03:00+18з348431 1.1 1020252
06:00+18з348590 0.3 1020232
09:00+18з348094 0.4 1022364
12:00+21ююз23669 0.1 1021801
15:00+21юв116435 0.1 1019565
18:00+19юз2279100 0.0 1020255
21:00+18юз228362 0.0 1022172
22 июня, вт
вт2200:00+18з1183100 0.0 1021170
03:00+18зюз118488 0.0 1020166
06:00+18сз118593 0.2 1020198
09:00+19ссз107843 0.2 1022291
12:00+20ююв117392 0.0 1022389
15:00+21юв337426 0.0 1020596
18:00+19юз228177 0.0 1022346
21:00+19юз238491 0.1 1023256
23 июня, ср
ср2300:00+18зюз228461 0.1 1023226
03:00+18зюз2285100 0.1 1023144
06:00+17з228821 0.0 1023125
09:00+18з11821 0.0 1025193
12:00+19в23777 0.0 1023511
15:00+20в34761 0.0 1022546
18:00+19всв358319 0.1 1023595
21:00+20всв578397 0.4 1023707
24 июня, чт
чт2400:00+19св4785100 0.3 1022640
03:00+19ссв358523 0.4 1020373
06:00+18св348582 0.0 1019355
09:00+19св2483100 0.0 1019366
12:00+20всв347436 0.0 1018392
15:00+21всв347390 0.0 1016407
18:00+20св3686100 0.0 1016292
21:00+20св2487100 0.0 1015160
25 июня, пт
пт2500:00+20сз2278100 0.0 101368
03:00+21ссз2370100 0.0 101269
06:00+21сз2368100 0.0 101254
09:00+24з2264100 0.0 101442
12:00+26ююв346181 0.0 1014329
15:00+25ю236910 0.0 1013138
18:00+21зсз33841 0.0 101683
21:00+20зюз23865 0.0 101872